Date,TemperatureHighF,TemperatureAvgF,TemperatureLowF,DewpointHighF,DewpointAvgF,DewpointLowF,HumidityHigh,HumidityAvg,HumidityLow,PressureMaxIn,PressureMinIn,WindSpeedMaxMPH,WindSpeedAvgMPH,GustSpeedMaxMPH,PrecipitationSumIn
2013-5-7,84.1,60.7,39.1,45.6,40.3,35.0,86,54,21,30.12,30.00,2,1,9,0.00
2013-5-8,78.1,60.6,46.5,58.5,51.1,43.1,94,73,37,30.16,30.05,2,1,11,0.15
2013-5-9,70.2,59.9,54.9,60.2,56.5,53.5,96,89,62,30.04,29.85,2,0,10,1.67
2013-5-10,73.2,60.1,50.4,62.3,56.0,49.0,97,87,60,29.90,29.85,1,0,6,0.07
2013-5-11,61.3,56.7,54.0,60.4,55.7,52.9,97,96,95,29.86,29.61,0,0,4,1.72
2013-5-12,66.9,55.2,42.8,57.3,47.7,29.3,97,78,46,29.69,29.49,4,1,12,0.00
2013-5-13,54.7,44.6,36.1,33.5,29.2,24.3,79,55,36,30.01,29.68,10,1,18,0.00
2013-5-14,58.8,44.7,31.0,32.7,28.9,21.9,90,57,32,30.01,29.93,11,1,18,0.00
2013-5-15,66.0,45.9,29.2,47.7,35.0,26.4,98,71,31,30.02,29.61,10,1,14,0.18
2013-5-16,75.5,56.9,42.0,50.0,42.9,35.5,96,65,25,29.77,29.52,11,1,20,0.01
2013-5-17,64.8,52.9,44.6,44.8,39.8,35.9,85,63,39,30.19,29.76,11,1,13,0.00
2013-5-18,69.7,54.4,38.4,46.8,41.0,35.2,92,65,30,30.29,30.19,5,0,7,0.00
2013-5-19,65.8,49.2,40.2,51.3,38.3,26.2,94,67,51,30.32,29.77,5,2,9,0.26
2013-5-20,71.3,55.5,49.6,62.0,52.8,48.0,97,91,60,30.16,29.88,9,0,11,0.63
2013-5-21,57.7,52.5,48.1,56.9,51.3,46.7,97,96,94,29.99,29.91,4,0,4,0.09
2013-5-22,63.7,58.5,47.9,55.5,51.0,46.8,97,78,57,30.30,29.89,1,0,5,0.00
2013-5-23,72.0,58.7,49.7,67.3,56.5,48.6,100,93,79,29.90,29.74,4,0,5,0.05
2013-5-24,64.7,54.8,45.7,63.8,52.4,43.9,97,92,74,29.86,29.59,4,2,13,0.26
2013-5-25,45.9,42.7,37.9,44.3,41.2,36.4,95,94,91,29.83,29.69,14,2,14,0.71
2013-5-26,57.2,45.0,37.1,46.2,38.7,32.3,95,80,54,29.97,29.67,13,2,17,0.12
2013-5-27,66.4,49.4,33.4,45.6,37.7,31.6,95,68,33,30.18,29.97,12,1,16,0.00
2013-5-28,74.1,54.3,35.6,48.8,41.1,33.9,95,67,30,30.24,30.12,7,0,7,0.00
2013-5-29,56.3,51.2,45.3,54.9,49.4,42.3,96,94,88,30.16,29.98,2,0,2,0.38
2013-5-30,84.3,67.8,51.5,65.2,59.3,50.4,97,77,44,30.01,29.93,11,1,12,0.00
2013-5-31,89.9,71.9,57.9,71.7,62.8,56.4,96,76,43,30.03,29.86,7,0,9,0.00